This is the latest recevied weather packets stored in our database for station/object DM4XI-13. If no packets are shown the sender has not sent any weather packets the latest 10 day(s).
| Time | Temp. | Humidity | Pressure | Rain* | Wind** | Luminosity | Snow |
|---|---|---|---|---|---|---|---|
| 1777618445 | 11.11° C | 47% | 1026.4 hPa | 0 mm | 0 m/s | 264 W/m² | - |
| 1777618385 | 11.11° C | 48% | 1026.4 hPa | 0 mm | 0.45 m/s, 167° | 47 W/m² | - |
| 1777618325 | 10.56° C | 48% | 1026.4 hPa | 0 mm | 0.45 m/s, 137° | 259 W/m² | - |
| 1777618262 | 10.56° C | 49% | 1026.4 hPa | 0 mm | 0.45 m/s, 249° | 259 W/m² | - |
| 1777618205 | 10.56° C | 48% | 1026.4 hPa | 0 mm | 0 m/s | 254 W/m² | - |
| 1777618140 | 11.11° C | 47% | 1026.3 hPa | 0 mm | 0.45 m/s, 335° | 252 W/m² | - |
| 1777618079 | 11.11° C | 47% | 1026.5 hPa | 0 mm | 0.45 m/s, 2° | 250 W/m² | - |
| 1777618018 | 11.11° C | 47% | 1026.3 hPa | 0 mm | 0 m/s | 277 W/m² | - |
| 1777617957 | 11.11° C | 46% | 1026.4 hPa | 0 mm | 0.45 m/s, 302° | 246 W/m² | - |
| 1777617896 | 10.56° C | 46% | 1026.4 hPa | 0 mm | 0.45 m/s, 20° | 243 W/m² | - |
| 1777617835 | 10.56° C | 48% | 1026.4 hPa | 0 mm | 0 m/s | 240 W/m² | - |
| 1777617774 | 10° C | 49% | 1026.3 hPa | 0 mm | 0 m/s | 238 W/m² | - |
| 1777617713 | 10° C | 50% | 1026.3 hPa | 0 mm | 0 m/s | 132 W/m² | - |
| 1777617652 | 10° C | 51% | 1026.4 hPa | 0 mm | 0 m/s | 234 W/m² | - |
| 1777617591 | 10° C | 50% | 1026.5 hPa | 0 mm | 0 m/s | 232 W/m² | - |
| 1777617530 | 10.56° C | 49% | 1026.4 hPa | 0 mm | 0.89 m/s, 329° | 229 W/m² | - |
| 1777617469 | 10.56° C | 50% | 1026.4 hPa | 0 mm | 0.89 m/s, 30° | 228 W/m² | - |
| 1777617408 | 10.56° C | 50% | 1026.4 hPa | 0 mm | 0.89 m/s, 24° | 225 W/m² | - |
| 1777617347 | 10.56° C | 49% | 1026.3 hPa | 0 mm | 0.45 m/s, 7° | 223 W/m² | - |
| 1777617286 | 10.56° C | 48% | 1026.2 hPa | 0 mm | 0.45 m/s, 38° | 218 W/m² | - |
| 1777617226 | 10.56° C | 48% | 1026.2 hPa | 0 mm | 0 m/s | 217 W/m² | - |
| 1777617164 | 10.56° C | 47% | 1026.4 hPa | 0 mm | 0.89 m/s, 358° | 216 W/m² | - |
| 1777617104 | 10.56° C | 47% | 1026.3 hPa | 0 mm | 0.45 m/s, 293° | 214 W/m² | - |
| 1777617042 | 10° C | 46% | 1026.4 hPa | 0 mm | 0 m/s | 194 W/m² | - |
| 1777616981 | 10° C | 49% | 1026.3 hPa | 0 mm | 0 m/s | 208 W/m² | - |
* Rain latest hour (hover to see other rain measurements)
** Current wind speed in m/s (hover to see current wind gust speed)